Location: *
(50.3194°N, 7.1067°E)
Time: 05:54:12
(UTC+00:00)

CZ-2C R/B - Pass Details

Date: 22 September 2019
Orbit: 785 x 870 km, 98.3° (Epoch: 21 October)

Event Time Altitude Azimuth Distance (km) Brightness Sun altitude
Rises 20:55:27 0° 13° (NNE) 3,441 6.3 -30.4°
Reaches altitude 10° 20:57:50 10° 11° (NNE) 2,509 5.5 -30.7°
Enters shadow 21:02:36 63° 344° (NNW) 966 3.0 -31.2°
